Starlink 32267

operational
NORAD ID: 60363 Int'l Des: 2024-138 Owner: SPXS Country: US Constellation: starlink
LEOCIRCULAR

About Starlink 32267

Description loading...

Live Position

Loading 3D Globe...

Upcoming Passes

Altitude History

Altitude vs Time

uPlot chart will show altitude changes over time

Two-Line Element Set

1 60363U 24138J 26049.34935350 .00002798 00000-0 10654-3 0 9994
2 60363 53.1622 39.6374 0001484 106.8108 253.3056 15.30204097 87664
Epoch: Feb 18, 2026 • Age: 16 hours

Current Status

Altitude 480.4 km
Velocity 7.63 km/s
Sub-Earth Point 51.73°N, 10.82°W
Launch Date Aug 4, 2024
Age 1.5 years
Type internet

Technical Details

Classification Payload
Mass 730.00 kg
Dry Mass 700.00 kg
Total Mass 730.00 kg
Length 0.30 m
Diameter 4.10 m
Span 29.00 m
Shape Box + pan
Manufacturer SPXS
Bus Type Starlink V2M
Phase Status In Orbit
Owner/State SPXS/US

Large Constellations

Loading constellations...